Weather History for Williston, ND

Change the Weather History Date:

Friday, March 7, 2014

  Actual Average Record
Temperature  
Mean Temperature 11 °F 25 °F  
Max Temperature 19 °F 35 °F 61 °F (1977)
Min Temperature 2 °F 15 °F -26 °F (1935)
Degree Days  
Heating Degree Days 54 40  
Month to date heating degree days 403 290  
Since 1 July heating degree days 7352 7058  
Cooling Degree Days 0 0  
Month to date cooling degree days 0 0  
Year to date cooling degree days 0 0  
Moisture  
Dew Point 3 °F    
Average Humidity 69    
Maximum Humidity 86    
Minimum Humidity 51    
Precipitation  
Precipitation 0.00 in 0.02 in 0.29 in (1988)
Month to date precipitation 0.12 0.14  
Year to date precipitation 0.56 1.12  
Sea Level Pressure  
Sea Level Pressure 30.27 in    
Wind  
Wind Speed 5 mph (NNE)    
Max Wind Speed 18 mph    
Max Gust Speed 25 mph    
Visibility 10 miles    
Events      
T = Trace of Precipitation, MM = Missing Value Source: NWS Daily Summary

Daily Weather History Graph

Daily Weather History Graph

Search for Another Location

Airport:

Trip Planner

Search our weather history database for the weather conditions in past years. The results will help you decide how hot, cold, wet, or windy it might be!

Date:

Astronomy

Mar. 07, 2014 Rise Set
Actual Time 7:23 AM CST 6:48 PM CST
Civil Twilight 6:52 AM CST 7:19 PM CST
Nautical Twilight 6:16 AM CST 7:55 PM CST
Astronomical Twilight 5:40 AM CST 8:31 PM CST
Moon 10:50 AM CST (3/7) 1:22 AM CST (3/7)
Length of Visible Light 12h 26m
Length of Day
11h 24m
Waxing Crescent, 42% of the Moon is Illuminated
Mar 7
Waxing Crescent
Mar 8
First Quarter
Mar 16
Full
Mar 23
Last Quarter
Mar 30
New

Hourly Weather History & Observations

Time (CST) Temp. Windchill Dew Point Humidity Pressure Visibility Wind Dir Wind Speed Gust Speed Precip Events Conditions
12:52 AM 12.9 °F -0.2 °F 6.1 °F 74% 30.12 in 10.0 mi NW 10.4 mph - N/A   Overcast
1:17 AM 12.9 °F 2.6 °F 6.1 °F 74% 30.03 in 10.0 mi NNW 6.9 mph - N/A   Overcast
1:52 AM 10.9 °F -4.1 °F 3.9 °F 73% 30.16 in 10.0 mi NNW 12.7 mph 25.3 mph N/A   Overcast
2:52 AM 9.0 °F -4.2 °F 3.0 °F 77% 30.18 in 10.0 mi North 9.2 mph - N/A   Clear
3:44 AM 7.0 °F -4.5 °F 1.0 °F 77% 30.09 in 10.0 mi NNW 6.9 mph - N/A   Mostly Cloudy
3:52 AM 7.0 °F 0.1 °F 1.0 °F 77% 30.22 in 10.0 mi NW 3.5 mph - N/A   Mostly Cloudy
4:11 AM 6.1 °F -5.6 °F 1.0 °F 80% 30.10 in 10.0 mi NNW 6.9 mph - N/A   Overcast
4:32 AM 5.0 °F -8.1 °F -0.0 °F 80% 30.11 in 10.0 mi NNW 8.1 mph - N/A   Scattered Clouds
4:52 AM 5.0 °F -6.9 °F -0.0 °F 80% 30.24 in 10.0 mi North 6.9 mph - N/A   Clear
5:52 AM 3.9 °F - -0.9 °F 80% 30.26 in 10.0 mi Calm Calm - N/A   Clear
6:52 AM 3.0 °F -6.4 °F -2.0 °F 80% 30.29 in 10.0 mi NNW 4.6 mph - N/A   Clear
7:33 AM 1.9 °F -9.2 °F -2.0 °F 83% 30.16 in 9.0 mi North 5.8 mph - N/A   Scattered Clouds
7:42 AM 3.0 °F -6.4 °F -2.0 °F 80% 30.16 in 7.0 mi North 4.6 mph - N/A   Mostly Cloudy
7:52 AM 3.0 °F -6.4 °F -0.9 °F 84% 30.31 in 4.0 mi North 4.6 mph - N/A   Overcast
8:13 AM 3.9 °F -9.4 °F -2.0 °F 76% 30.18 in 6.0 mi North 8.1 mph - N/A   Haze
8:23 AM 3.9 °F -8.2 °F -0.9 °F 80% 30.19 in 7.0 mi North 6.9 mph - N/A   Partly Cloudy
8:52 AM 5.0 °F -6.9 °F -0.9 °F 76% 30.34 in 7.0 mi North 6.9 mph - N/A   Partly Cloudy
9:52 AM 7.0 °F 0.1 °F -0.0 °F 73% 30.36 in 10.0 mi North 3.5 mph - N/A   Clear
10:52 AM 10.9 °F - 1.0 °F 64% 30.37 in 10.0 mi Calm Calm - N/A   Clear
11:52 AM 12.9 °F 6.9 °F 1.9 °F 62% 30.38 in 10.0 mi Variable 3.5 mph - N/A   Partly Cloudy
12:52 PM 12.9 °F 3.8 °F 1.9 °F 62% 30.38 in 10.0 mi NNE 5.8 mph - N/A   Overcast
1:52 PM 16.0 °F 8.8 °F 3.0 °F 57% 30.35 in 10.0 mi NE 4.6 mph - N/A   Overcast
2:52 PM 17.1 °F 11.7 °F 3.9 °F 56% 30.35 in 10.0 mi North 3.5 mph - N/A   Overcast
3:52 PM 18.0 °F - 3.9 °F 54% 30.33 in 10.0 mi Calm Calm - N/A   Overcast
4:52 PM 19.0 °F 12.3 °F 5.0 °F 54% 30.35 in 10.0 mi North 4.6 mph - N/A   Overcast
5:52 PM 18.0 °F 8.7 °F 5.0 °F 57% 30.35 in 10.0 mi NNE 6.9 mph - N/A   Overcast
6:52 PM 17.1 °F 6.6 °F 6.1 °F 62% 30.35 in 10.0 mi ENE 8.1 mph - N/A   Overcast
7:52 PM 17.1 °F 8.7 °F 7.0 °F 65% 30.36 in 10.0 mi ENE 5.8 mph - N/A   Overcast
8:52 PM 17.1 °F 7.6 °F 8.1 °F 68% 30.36 in 10.0 mi ESE 6.9 mph - N/A   Overcast
9:52 PM 17.1 °F 8.7 °F 8.1 °F 68% 30.36 in 10.0 mi SE 5.8 mph - N/A   Overcast
10:24 PM 17.1 °F 10.0 °F 8.1 °F 68% 30.22 in 10.0 mi East 4.6 mph - N/A   Overcast
10:36 PM 17.1 °F 8.7 °F 9.0 °F 71% 30.22 in 10.0 mi East 5.8 mph - N/A   Overcast
10:52 PM 17.1 °F 11.7 °F 9.0 °F 71% 30.35 in 10.0 mi ENE 3.5 mph - N/A   Overcast
11:52 PM 17.1 °F 10.0 °F 8.1 °F 68% 30.34 in 10.0 mi ESE 4.6 mph - N/A   Overcast